Location: Baumgartsau
(48.4586°N, 14.0864°E)
Time: 20:22:53
(UTC+00:00)

BREEZE M DEB (TANK) - Visible Passes

Search period start: 04 August 2021 00:00
Search period end: 14 August 2021 00:00
Orbit: 297 x 11837 km, 49.5° (Epoch: 04 August)

Date Brightness Start Highest point End Pass type
(mag) Time Alt. Az. Time Alt. Az. Time Alt. Az.
07 Aug 4.0 02:17:19 14° SSW 02:20:02 21° SSE 02:22:20 10° ESE visible
08 Aug 4.9 01:19:13 14° SSE 01:19:13 14° SSE 01:21:27 10° ESE visible
10 Aug 2.1 03:14:00 10° WSW 03:17:51 50° SSE 03:20:02 10° E visible
11 Aug 3.3 02:15:07 19° SSW 02:17:24 30° SSE 02:19:49 10° E visible
12 Aug 4.4 01:16:57 20° SSE 01:16:57 20° SSE 01:19:23 10° ESE visible
